Regional Weather Roundup
Issued by NWS Wakefield, VA

Home | Current Version | Previous Version | Graphics & Text | Print | Product List | Glossary On
Versions: 1 2 3 4 5 6 7 8 9 10 11 12 13 14 15 16 17 18 19 20 21 22 23 24 25 26 27 28 29 30 31 32 33 34 35 36 37 38 39 40 41 42 43 44 45 46 47 48 49 50
000
ASUS41 KAKQ 241910
RWRAKQ

REGIONAL WEATHER ROUNDUP
NATIONAL WEATHER SERVICE WAKEFIELD VA
300 PM EDT THU JUL 24 2014

Note: "fair" indicates few or no clouds below 12,000 feet with no
significant weather and/or obstructions to visibility. * = Denotes
station may not report precipitation (e.g., rain,snow,etc.),
thunder or fog.

VAZ042-051-052>054-056-242000-
NORTHERN VIRGINIA

CITY           SKY/WX    TMP DP  RH WIND       PRES   REMARKS
WASH NATIONAL  CLOUDY    80  60  50 N9        29.91S
DULLES         PTSUNNY   76  60  57 VRB5      29.92S
FORT BELVOIR   DRIZZLE   77  63  62 N5        29.91S
QUANTICO       CLOUDY    77  66  68 N5        29.91S
FREDERICKSBRG* LGT RAIN  74  69  83 NW3       29.91S
STAFFORD*      CLOUDY    74  70  85 CALM      29.95F
WARRENTON      LGT RAIN  74  68  82 N3        29.93R
CULPEPER*      HVY RAIN N/A N/A N/A N6        29.95R
MANASSAS*      CLOUDY    77  63  61 NW9       29.92S
LEESBURG*      PTSUNNY   79  66  65 N3        29.93S
WINCHESTER     CLOUDY    73  61  64 NW5       29.95S
$$

VAZ048-049-060>072-079>083-242000-
CENTRAL AND SOUTH CENTRAL VIRGINIA...AND NORTH CENTRAL NORTH CAROLINA

CITY           SKY/WX    TMP DP  RH WIND       PRES   REMARKS
RICHMOND       CLOUDY    82  70  66 NE12      29.87F
CHESTERFIELD*  CLOUDY    81  64  57 N3        29.89F
HANOVER        LGT RAIN  79  70  74 VRB3      29.90S
TAPPAHANNOCK*  PTSUNNY   79  68  67 N7        29.89F
CHARLOTTSVILLE CLOUDY    71  67  87 NE7       29.92S
ORANGE*        CLOUDY    70  66  88 NE3       29.94S
LOUISA*        RAIN      70  66  88 N8        29.91S
FARMVILLE*     PTSUNNY   84  68  58 E3        29.85F
SOUTH HILL*    PTSUNNY   84  72  65 CALM      29.93F
ROANOKE RAPIDS MOCLDY    88  70  55 NE5       29.87F
RALEIGH        PTSUNNY   87  70  56 CALM      29.87F
$$

VAZ088>098-242000-
SOUTHEAST VIRGINIA

CITY           SKY/WX    TMP DP  RH WIND       PRES   REMARKS
NORFOLK        CLOUDY    80  71  74 N9        29.86S
VIRGINIA BEACH CLOUDY    79  73  82 E6        29.86F
NORFOLK NAVAL  CLOUDY    83  73  72 N9        29.88S
WEST POINT*    PTSUNNY   79  74  86 NE6       29.89F
NEWPORT NEWS   PTSUNNY   86  72  62 NE6       29.87F
LANGLEY AFB    PTSUNNY   79  74  85 NE8       29.87S
FORT EUSTIS    PTSUNNY   82  74  78 NW5       29.85F
WILLIAMSBURG*  PTSUNNY   86  75  70 CALM      29.88S HX  95
FRANKLIN*      PTSUNNY   81  72  74 N5        29.87F
WAKEFIELD      CLOUDY    83  72  69 VRB3      29.87F
$$

VAZ020-022-025-037-045-242000-
WESTERN AND SOUTHWEST VIRGINIA

CITY           SKY/WX    TMP DP  RH WIND       PRES   REMARKS
STAUNTON*      RAIN      68  65  88 NE6       29.97R
HOT SPRINGS VA TSTM      60  58  92 NW5       30.07R
LYNCHBURG      PTSUNNY   81  68  64 E5        29.90S
DANVILLE       MOSUNNY   86  70  58 CALM      29.88F
MARTINSVILLE   MOSUNNY   85  71  61 S5        29.90F
ROANOKE        LGT RAIN  73  66  78 N14       29.92R
BLACKSBURG     PTSUNNY   72  72 100 W5          N/A
DUBLIN*        NOT AVBL
MARION*        PTSUNNY   78  68  70 W12G17    29.99F
HILLSVILLE*    CLOUDY    78  64  63 SW6       29.98S
RICHLANDS*     PTCLDY    70  67  90 CALM      30.02R
WISE*          CLOUDY    72  70  94 S6        30.03S
ABINGDON*      PTSUNNY   82  67  59 W7        29.97S
$$

MDZ021>025-VAZ099-100-242000-
SOUTHERN MARYLAND AND THE DELMARVA PENINSULA

CITY           SKY/WX    TMP DP  RH WIND       PRES   REMARKS
PATUXENT RIVER CLOUDY    74  67  78 N14       29.89S
BAY BRIDGE APT   N/A     77  61  57 N8        29.89F
LEONARDTOWN    CLOUDY    73  64  73 N3        29.92R
DOVER          PTSUNNY   78  66  66 VRB6      29.86F
GEORGETOWN     CLOUDY    77  66  68 NE8       29.88S
EASTON         PTSUNNY   77  68  73 NW5       29.93S
CAMBRIDGE      CLOUDY    77  63  61 N8        29.89S
SALISBURY      NOT AVBL
OCEAN CITY     CLOUDY    77  68  73 N6        29.87R
WALLOPS ISLAND CLOUDY    78  70  76 NE5       29.88R
ACCOMACK*        N/A     73  70  88 E3        29.87S
$$

NCZ012>017-030>032-242000-
EASTERN NORTH CAROLINA

CITY           SKY/WX    TMP DP  RH WIND       PRES   REMARKS
ELIZABETH CITY CLOUDY    77  72  84 E5        29.88S
AHOSKIE*       MOSUNNY   81  70  68 N5        29.87F
EDENTON*       CLOUDY    78  74  89 E5        29.88S
CURRITUCK*     CLOUDY    77  71  82 CALM      29.89R
KILL DEVIL HLS LGT RAIN  73  71  95 CALM      29.88F
MANTEO         NOT AVBL
CAPE HATTERAS  RAIN      74  73  97 W6        29.91S FOG
GOLDSBORO      LGT RAIN  75  75 100 S2        29.86F
WASHINGTON     CLOUDY    75  71  87 CALM      29.88F
GREENVILLE     MOSUNNY   79  73  83 E5        29.90S
NEW BERN       TSTM      75  72  90 S9        29.89F FOG
WILMINGTON     MOSUNNY   91  75  59 SW13      29.86F HX 101
$$

VAZ048-242000-
ELSEWHERE

CITY           SKY/WX    TMP DP  RH WIND       PRES   REMARKS
HARRISBURG PA  PTSUNNY   79  54  41 N8G18     29.90F
BALTIMORE      PTSUNNY   78  61  55 N6        29.89F
ANNAPOLIS      PTSUNNY   77  63  61 N6        29.89F
ANDREWS AFB    NOT AVBL
WILMINGTON DE  MOSUNNY   81  58  45 N12       29.88F
PHILADELPHIA   PTSUNNY   81  58  45 N13       29.87F
WILDWOOD NJ*   PTSUNNY   75  64  69 N8        29.87F
ATLANTIC CITY  PTSUNNY   80  65  59 VRB6      29.85F
HENDERSON NC   MOSUNNY   83  69  62 N5        29.89F
GREENSBORO     PTSUNNY   86  70  58 SW7       29.89F
ROCKY MOUNT    MOSUNNY   84  72  67 CALM      29.87F
FAYETTEVILLE   SUNNY     93  70  46 SW17G24   29.84F HX  99
CHARLOTTE      NOT AVBL
$$

VAZ100-242000-
MARINE

STATION/POSITION TIME  TEMP    WIND        PRES    WAVE   SWELL
                       AIR SEA DIR/SP/G            HT/PER HT/PER
                 (UTC) (F)     (DEG/KT/KT) (MB)    (FT/S) (FT/S)
44066 TX TWR #4  1900   72 74  340/ 10/ 12 1010.2F   3/ 7   3/ 7
CAPE MAY NJ      1900   76 77  330/  7/ 11 1010.8S
LEWES DE         1900   74 73  350/  8/ 13 1011.1S
15NM E FENWICK I 1900   73 76              1010.9F   3/ 6
OCEAN-CITY-INLET 1900   74 76   10/  8/ 10 1010.9R
WACHAPREAGUE VA  1900   76 81   40/  7/  8 1011.6R
THOMAS POINT MD  1900   74 80   40/  9/  9 1012.8F
GOOSES REEF MD   1900   75      30/ 12/ 14 1012.8S
COVE POINT MD    1900   74      10/ 11/ 14 1012.2S
SOLOMONS ISLAND  1900      81                N/A
BISHOPS HEAD MD  1900   76 80   10/  6/  8 1011.5R
PINEY POINT MD   1900           20/ 11/ 14   N/A
POTOMAC MD       1900   76      10/  8/ 10 1011.3S
CAMBRIDGE MD     1900   75 80  360/  8/ 11 1011.9R
LEWISETTA VA     1900   75 81   10/  6/  9 1011.8F
RAPPAHANNOCK LGT 1900          360/  8/ 10 1011.8F
STINGRAY PT      1900   76      20/ 10/ 12 1012.5S
YORK RVR RNG VA  1900   78      40/  8/ 10 1010.9F
YORKTOWN VA      1900   82 81   CALM  /  1 1011.1S
JAMESTOWN VA     1900   77     340/  6/  8   N/A
DOMINION TERM VA 1900   78     310/  7/  9 1011.3F
KIPTOPEKE VA     1900      82  170/  5/  6   N/A
CHES BAY BRIDGE  1900   75 79   80/  4/  4 1010.8R
CAPE HENRY VA    1900   76      30/  4/  5 1010.2R
WILLOUBY STN VA  1900          340/  3/  4 1010.7R
S CRANEY ISL VA  1900          320/  6/  9 1011.3R
CAPE HENRY BUOY  1900      77                N/A     2/ 6
1ST LANDING BUOY 1900   76     100/  4/  6 1011.1S
CAPE CHARLES BUO 1900      75                N/A     2/ 5
OFFSHORE WE BUOY 1900      78                N/A     2/ 7
64NM E OF VA BCH 1900   76 78   20/  6/  8 1011.1R   4/ 6   3/ 6
DUCK PIER NC     1900   73 72   50/  3/  3 1011.3F
44056 DUCK FRF   1900                        N/A     2/ 9
OREGON INLET NC  1900   72 83  360/  4/  6 1011.9F
HATTERAS NC      1900   73 82  300/ 11/ 14 1013.3R
DIAMOND SHLS NC  1900          VRB 17/ 21  1012.0R   4/ 5   2/ 9
CAPE LOOKOUT NC  1800   84     220/ 15/ 21 1011.8F
$$


USA.gov is the U.S. government's official web portal to all federal, state and local government web resources and services.